カタログに戻る

STARLINK-32309

運用中通信VLEO
NORAD 61676·PAYLOAD·🇺🇸 United States

打ち上げ Oct 26, 2024 から Cape Canaveral Space Force Station

Loading…

次のパス (今後24時間)

TLE

最新Source: CelesTrak SupGP

元期: Sep 14, 2026, 14:47 UTC

1 61676C 24193R   26257.61645833  .00018541  00000+0  54808-3 0  2576
2 61676  53.1573 289.3417 0001160  74.6924 163.6904 15.34365645    18

AllMySatでSTARLINK-32309をリアルタイム追跡

Download on the App Store